DAMPE

Last updated on Thu Oct 30 2025 00:03:36 GMT+0000 (Coordinated Universal Time)

1 41173U 15078A 25302.49413391 .00002151 00000+0 76727-4 0 9994 2 41173 97.4553 302.0020 0012514 166.4935 193.6643 15.29946493549265
UTC large
Height (km)
Speed (km/s)
/
Latitude / Longitude
Inclination (degrees)
Orbital Period (minutes)
Azimuth
Elevation
Range (km)
Doppler Factor

Next 0 passes for location: London (51.5072 / 0.1276)

Sorry there are no passes over London.